{"data":{"norad_id":64317,"epoch":"2026-09-20T09:32:26.556576Z","epoch_age_seconds":146474,"freshness":"FRESH","line1":"1 64317U 25124A   26263.39752959  .00164250  00000+0  12578-2 0  9995","line2":"2 64317  42.9984 295.8704 0000480 228.2968 131.7859 15.70850744 73457","mean_motion":15.70850744,"eccentricity":4.8e-5,"inclination_deg":42.9984,"raan_deg":295.8704,"arg_perigee_deg":228.2968,"mean_anomaly_deg":131.7859,"bstar":0.0012578,"rev_number":7345,"period_min":91.670071488345,"perigee_km":356.14109251586,"apogee_km":356.78761424578,"semimajor_km":6734.6013533808,"source":"CELESTRAK","updated_at":"2026-09-21T09:00:35.310475Z"}}